ASIASAT 8

Last updated on Nov. 13, 2019, 4:20 a.m. UTC

1 40107U 14046A   19316.11418032 -.00000020  00000-0  00000+0 0  9999
2 40107   0.0076 114.7563 0002088  97.9572 235.4906  1.00271931 19341
UTC
Height (km)
Latitude
Longitude
Inclination
Orbital Period
UTC large
Height (km)
Speed (km/s)
/
Latitude / Longitude
Inclination (degrees)
Orbital Period (minutes)
Azimuth
Elevation
Range (km)
Doppler Factor
iOS Compass Heading
iOS Angle

Next 30 passes for location: Hong Kong

Rise time Rise Azimuth (degrees) Set time Set Azimuth (degrees) Duration Max altitude (degrees)

No matching passes for this satellites